Location: Vienna
(48.2082°N, 16.3738°E)
Time: 01:00:21
(UTC+02:00)

ISS - Pass Details

Date: 15 July 2018
Orbit: 402 x 408 km, 51.6° (Epoch: 16 July)

Event Time Altitude Azimuth Distance (km) Brightness Sun altitude
Exits shadow 01:49:53 52° 276° (W) 510 -3.5 -19.4°
Maximum altitude 01:50:31 72° 341° (NNW) 432 -3.7 -19.3°
Drops below altitude 10° 01:53:49 10° 67° (ENE) 1,471 -0.5 -19.2°
Sets 01:55:54 0° 69° (ENE) 2,334 0.5 -19.1°
